Theta_e
297 297 296 297 297 296 296 294 291 287 288 294 296 300 301 305 304 304 305 304 302 303 304 306 309 311 311 311 313 315 317 319 322 324 326 328 331 332
295 294 293 293 295 295 296 296 294 291 288 294 294 297 299 299 301 303 304 302 303 303 303 303 306 307 306 306 307 309 312 314 317 320 322 324 327 329
291 291 291 292 292 293 295 294 294 294 289 292 296 299 299 297 298 299 301 304 306 302 301 302 300 301 302 303 304 306 307 309 312 315 317 320 323 326
290 290 290 291 291 292 292 292 292 293 291 288 292 295 295 297 298 298 298 299 303 299 299 298 300 299 298 300 301 302 303 304 306 309 312 314 318 321
290 290 290 290 289 291 291 291 291 291 291 290 289 295 296 297 297 298 298 298 299 298 297 298 296 297 299 300 300 301 302 303 303 303 305 307 309 313
292 291 290 289 289 289 289 289 289 289 290 289 288 289 291 293 294 293 294 297 297 298 298 296 296 298 298 297 298 299 302 302 302 303 302 301 301 305
292 291 291 290 289 289 288 288 288 287 287 287 287 288 288 289 289 291 290 292 293 295 298 298 298 299 300 297 298 300 301 299 297 298 301 301 299 300
290 290 291 290 289 288 288 288 288 287 286 286 286 285 287 288 289 288 288 287 285 294 295 293 295 292 297 298 297 299 297 295 295 295 297 299 300 299
290 289 289 289 289 288 288 288 287 287 287 287 285 285 285 287 288 287 287 286 286 290 290 287 292 290 296 297 299 298 296 295 294 294 295 296 297 297
289 289 288 288 288 286 287 287 287 288 289 288 288 288 288 289 289 288 288 287 288 289 292 285 292 290 295 295 297 298 296 294 294 294 294 294 294 295
288 289 287 287 285 286 286 285 285 287 287 287 288 288 288 289 289 288 286 286 285 287 293 288 288 287 291 294 300 296 294 294 293 294 293 293 293 293
287 287 285 284 284 285 284 284 283 284 284 286 288 290 290 290 289 290 288 285 285 285 294 288 289 288 288 296 296 296 297 294 293 293 293 293 292 299
285 284 286 284 284 284 284 284 283 284 284 286 287 289 290 290 289 290 289 288 285 285 290 289 288 289 289 289 292 292 291 292 293 295 293 293 293 291
284 284 286 283 283 283 284 283 283 283 284 285 285 285 286 286 287 289 289 289 290 288 291 290 286 286 286 287 288 291 291 290 292 292 292 292 292 292
284 283 283 283 283 284 283 283 283 284 282 282 282 284 285 288 288 289 289 290 290 291 291 289 287 286 286 286 288 289 287 289 290 290 291 290 289 290
283 284 283 282 282 283 284 285 285 284 282 282 282 285 286 286 287 288 287 288 288 287 290 290 288 286 285 286 286 286 287 286 288 289 289 290 289 290
282 283 282 282 282 282 282 282 284 284 282 283 282 283 283 284 286 287 287 289 287 286 286 288 289 288 285 285 284 285 286 287 287 288 289 290 290 288
282 280 280 280 279 279 279 280 282 281 282 282 282 282 282 283 284 286 287 287 287 286 286 287 287 287 287 285 288 284 285 285 286 287 287 287 288 287
279 279 278 278 278 279 279 279 279 280 281 281 281 281 282 283 283 284 286 286 286 287 287 288 286 285 283 283 288 287 283 284 285 286 286 286 285 285
278 277 277 277 278 277 278 278 278 280 280 280 280 281 281 282 282 282 284 284 284 286 287 288 287 285 283 283 284 287 285 285 284 285 286 287 287 285
276 276 277 277 277 277 277 277 278 278 278 278 279 280 281 282 282 283 283 283 284 286 286 286 287 286 290 289 285 284 287 286 285 283 284 286 287 286
275 275 275 276 275 276 276 276 276 277 278 278 278 279 280 282 281 282 282 283 283 284 285 288 289 290 288 285 283 284 285 287 287 285 284 283 285 284
274 275 275 275 274 274 275 275 274 275 275 275 277 277 279 280 281 282 281 283 283 283 284 287 288 289 287 286 285 285 285 286 286 285 284 283 283 284
Wind_Speed
9 10 9 9 9 9 8 8 9 15 16 12 14 18 16 16 19 22 23 28 34 29 25 23 27 25 23 25 27 29 30 30 30 27 27 26 28 29
8 11 11 9 11 10 9 8 8 11 17 15 13 17 17 14 21 23 24 31 26 27 25 19 24 19 23 27 30 29 27 29 30 29 27 26 27 29
10 10 11 11 9 9 9 10 10 11 16 16 15 17 21 18 18 19 20 21 17 24 25 20 25 24 23 29 27 27 26 28 28 28 27 26 26 28
12 12 12 10 13 12 9 13 11 12 13 23 18 16 18 20 20 21 17 18 18 24 25 32 22 25 27 26 20 23 25 26 26 27 27 27 25 26
12 12 13 13 13 11 13 12 11 11 13 14 17 15 16 16 19 19 18 19 16 25 26 24 29 31 27 18 23 26 27 24 25 26 27 27 26 27
12 12 12 13 14 16 14 14 14 14 14 13 14 15 14 17 14 16 18 15 17 17 19 21 24 22 22 26 26 27 25 20 25 26 24 25 25 26
12 12 12 14 19 17 12 15 17 14 13 13 14 14 14 15 16 14 15 17 16 15 15 13 14 16 16 20 22 23 16 22 26 26 24 25 23 25
12 13 14 15 18 19 22 22 18 15 16 14 14 15 17 17 16 14 16 15 19 10 13 16 13 15 15 13 23 19 18 21 24 25 26 25 24 24
13 13 13 12 15 19 22 21 18 19 17 15 18 16 20 18 19 18 17 16 18 17 14 17 12 15 14 14 19 14 16 18 17 20 22 21 20 22
12 13 15 16 17 21 20 18 17 17 17 15 17 18 18 19 18 17 19 17 15 16 12 14 13 13 13 13 21 15 16 12 13 14 18 19 17 22
13 13 14 16 25 27 19 19 19 17 18 24 25 26 25 25 21 13 12 14 14 16 12 10 7 8 10 11 8 9 13 9 14 14 14 14 14 17
13 13 16 20 26 26 18 17 18 19 19 18 18 19 20 18 23 15 13 12 13 11 7 6 10 8 6 4 6 5 4 7 14 15 16 14 15 7
9 10 11 24 25 25 24 16 18 20 17 15 14 14 16 15 14 15 15 12 12 12 15 7 7 10 5 7 4 3 3 6 6 7 13 16 15 15
11 10 12 24 24 22 18 24 25 17 14 13 14 14 15 15 15 15 16 14 13 13 14 10 5 7 6 7 5 4 5 3 6 7 7 11 12 16
10 14 19 21 21 15 21 23 18 12 13 14 14 14 14 15 17 16 15 17 13 12 11 10 8 9 6 6 6 5 6 4 7 7 6 7 6 6
12 10 10 11 12 13 14 15 13 13 13 13 13 13 14 15 14 14 14 14 13 13 13 13 12 7 5 6 4 6 6 5 7 7 7 4 6 6
10 8 9 12 13 13 13 14 13 14 14 14 14 14 14 14 15 15 14 14 13 14 13 14 14 9 3 6 6 8 8 5 7 8 5 4 5 6
6 9 11 11 13 14 14 14 14 17 15 15 14 14 14 15 16 15 14 14 14 13 12 11 12 12 4 2 13 10 9 8 7 8 7 3 3 8
8 9 10 11 11 12 13 14 13 13 18 14 14 15 15 15 17 15 15 14 14 13 12 11 11 11 10 10 4 12 10 8 9 7 6 5 5 7
8 9 9 10 11 11 12 13 14 14 14 15 14 15 15 14 15 15 15 16 15 13 12 11 12 12 10 8 6 7 12 10 8 9 6 4 3 5
8 8 8 9 10 11 11 12 13 13 13 13 13 14 15 14 16 15 15 20 18 13 13 12 12 14 8 8 7 9 9 12 11 9 7 5 5 5
7 7 8 9 9 10 11 11 12 13 13 13 13 13 14 14 15 16 15 15 14 13 12 10 12 10 10 10 10 11 10 9 10 18 21 12 3 5
6 7 7 8 9 10 10 11 12 13 13 14 13 13 14 14 14 13 14 14 14 14 14 12 11 10 11 10 9 9 12 11 9 12 14 25 23 22
Wind_Direction
345 348 335 331 328 317 308 302 304 310 311 316 327 317 315 310 318 315 303 304 305 297 290 296 295 300 307 310 299 289 280 270 260 249 245 240 240 236
354 346 342 332 328 324 311 301 291 292 295 313 309 307 309 307 309 314 306 303 294 295 292 299 293 299 312 312 305 296 287 277 266 254 244 241 237 236
355 341 335 331 321 313 318 315 311 303 295 303 303 309 307 306 304 303 302 304 304 304 320 324 318 308 311 307 297 298 299 290 271 263 257 246 240 236
353 344 342 337 334 327 320 317 311 309 302 306 310 309 304 307 302 301 302 301 307 309 310 304 303 307 304 297 295 298 299 297 281 265 253 249 244 241
356 348 345 343 336 333 330 325 320 315 305 300 304 305 305 306 308 301 300 299 300 304 298 304 304 297 292 303 304 301 298 298 288 266 250 245 239 236
355 352 351 344 344 341 335 331 321 313 307 301 300 304 305 308 301 306 304 302 303 302 298 291 289 290 300 304 299 294 291 297 306 280 256 246 236 237
354 354 354 345 346 334 333 327 320 313 307 305 305 306 306 310 310 310 300 305 298 295 293 297 307 303 295 294 287 285 291 311 304 296 281 256 242 238
353 352 349 351 345 340 332 323 314 310 311 311 310 307 308 310 308 309 304 304 304 283 299 298 297 296 291 288 282 289 317 308 298 298 286 266 247 238
354 350 345 347 343 342 334 328 329 320 304 308 309 310 308 309 306 305 301 295 289 292 296 291 293 285 290 282 284 301 292 289 312 320 309 274 255 247
352 350 345 344 348 341 334 335 334 328 332 323 307 304 303 304 302 303 301 291 284 290 283 285 293 289 292 281 272 260 276 293 316 337 341 327 292 263
350 347 345 346 344 343 338 336 333 333 332 319 315 308 306 309 310 310 314 313 308 304 302 284 283 289 282 281 290 265 283 332 326 335 344 353 337 283
342 347 350 347 344 345 342 336 334 335 326 326 327 328 325 325 326 327 319 313 312 310 328 316 305 310 316 270 300 295 315 329 326 328 340 1 1 321
341 340 338 343 341 341 343 342 333 325 328 328 332 332 335 330 332 330 323 320 312 301 301 304 299 306 276 298 295 304 357 343 329 325 340 341 16 17
351 341 337 341 342 340 342 340 339 339 338 335 337 338 336 333 330 328 327 321 318 309 316 322 291 301 297 296 284 331 335 336 345 326 343 337 352 8
351 332 334 340 342 343 348 349 347 347 341 340 338 334 332 326 328 330 333 330 325 327 334 331 318 311 296 280 310 326 324 344 344 333 343 359 354 349
347 347 338 337 350 350 354 354 350 350 342 340 335 330 329 335 338 338 334 335 334 339 341 343 336 325 320 327 323 328 335 337 334 339 331 336 4 13
322 347 0 3 359 359 357 354 349 348 349 343 339 337 336 335 339 340 340 337 344 343 342 344 341 341 2 13 3 350 341 342 337 338 338 333 19 2
5 9 9 4 2 355 353 348 348 349 347 342 340 339 338 339 338 339 342 344 345 347 345 346 344 348 338 77 48 5 357 339 339 333 346 320 4 6
24 16 10 2 358 355 351 348 346 345 341 344 341 342 338 341 341 340 342 344 344 347 349 352 351 354 352 353 0 49 356 346 337 345 348 353 342 357
23 14 6 359 356 351 349 346 344 345 344 343 341 341 340 342 343 344 343 343 342 343 347 356 359 354 351 346 331 351 17 356 347 341 339 322 305 304
12 9 1 358 356 349 346 345 342 345 343 338 340 340 340 342 345 343 342 343 343 345 349 354 350 331 348 352 0 4 5 15 12 358 325 327 353 355
7 1 358 359 354 348 345 346 346 346 347 345 341 340 336 341 344 344 343 342 344 342 345 343 344 350 360 3 1 3 9 10 23 28 29 32 339 1
360 353 355 355 350 348 346 348 346 345 347 342 338 339 336 342 342 342 346 344 344 348 346 342 349 355 1 357 356 7 14 18 25 37 39 38 47 61